(336572) = 2009 SQ125

Discovered at Kitt Peak on 2009-09-18 by Spacewatch.

Orbit

Orbit type: Main Belt

Note: WebGL enabled browser required.

epoch2024-03-31.0
epoch JD2460400.5
perihelion date2025-08-22.71397
perihelion JD2460910.21397
argument of perihelion (°)89.49598
ascending node (°)213.67820
inclination (°)6.93596
eccentricity0.1769515
perihelion distance (AU)1.8155921
Tisserand w.r.t. Jupiter3.6
ΔV w.r.t. Earth (km/sec)8.5
semimajor axis (AU)2.2059357
mean anomaly (°)206.66507
mean daily motion (°/day)0.30082550
aphelion distance (AU)2.596
period (years)3.28
P-vector [x]0.54312801
P-vector [y]-0.81038900
P-vector [z]-0.21973081
Q-vector [x]0.83697532
Q-vector [y]0.50165996
Q-vector [z]0.21865405
absolute magnitude18.16
phase slope0.15
uncertainty0
referenceMPEC 2024-C74
observations used184
oppositions14
arc length (days)6900
first opposition used2005
last opposition used2024
residual rms (arc-secs)0.72
perturbers coarse indicatorM-v
perturbers precise indicator003Ek
first observation date used2005-03-17.0
last observation date used2024-02-06.0
computer nameMPCLINUX
JD of orbit computation2456670.939304
perihelion JD uncertainty (days)8.2361E-05
argument of perihelion uncertainty (°)6.4377E-05
ascending node uncertainty (°)5.7659E-05
inclination uncertainty (°)8.9564E-06
eccentricity uncertainty 6.5913E-08
perihelion distance uncertainty (AU)1.3916E-07
Minimum Orbit Intersection Distances (in AU)
for orbit epoch: 2460200.5, reference: E2024-C74
Mercury1.3861
Venus1.10345
Earth0.8163
Mars0.44816
Jupiter2.63784
Saturn6.51935
Uranus15.9501
Neptune27.5288

Observations

186 total observations over interval: 2005 03 17.41279 – 2024 02 06.409025
These data are available for download (format description).

Date (UT) J2000 RA J2000 Dec Magn Location Ref
2005 03 17.41279 14 06 59.24 -15 57 13.7 19.1 R G96 – Mt. Lemmon Survey MPS 305074
2005 03 17.41704 14 06 59.09 -15 57 12.9 19.5 R G96 – Mt. Lemmon Survey MPS 305074
2005 03 17.42123 14 06 59.02 -15 57 12.4 19.1 R G96 – Mt. Lemmon Survey MPS 305074
2005 03 17.42551 14 06 58.96 -15 57 10.5 19.7 R G96 – Mt. Lemmon Survey MPS 305074
2005 04 17.29819 13 45 33.02 -12 17 30.8 20.4 V 691 – Steward Observatory, Kitt Peak-Spacewatch MPS 305074
2005 04 17.31695 13 45 31.89 -12 17 20.2 20.5 V 691 – Steward Observatory, Kitt Peak-Spacewatch MPS 305074
2005 04 17.33564 13 45 30.77 -12 17 09.2 20.8 V 691 – Steward Observatory, Kitt Peak-Spacewatch MPS 305074
2005 05 08.29160 13 26 51.12 -08 55 43.5 19.1 R G96 – Mt. Lemmon Survey MPS 305074
2005 05 08.30185 13 26 50.86 -08 55 38.4 19.0 R G96 – Mt. Lemmon Survey MPS 305074
2005 05 08.31186 13 26 50.34 -08 55 33.7 20.0 R G96 – Mt. Lemmon Survey MPS 305075
2005 05 08.32187 13 26 49.94 -08 55 27.8 20.1 R G96 – Mt. Lemmon Survey MPS 305075
2006 11 20.42874 04 16 24.41 +15 34 03.2   291 – LPL/Spacewatch II MPS 305075
2006 11 20.43596 04 16 23.88 +15 34 00.5   291 – LPL/Spacewatch II MPS 305075
2006 11 20.44992 04 16 22.93 +15 33 55.2   291 – LPL/Spacewatch II MPS 305075
2008 03 11.32015 11 12 26.60 -03 37 39.3 21.2 V G96 – Mt. Lemmon Survey MPS 305075
2008 03 11.32958 11 12 26.06 -03 37 34.8 21.8 V G96 – Mt. Lemmon Survey MPS 305075
2008 03 11.33899 11 12 25.45 -03 37 29.6 21.2 V G96 – Mt. Lemmon Survey MPS 305075
2008 03 11.34844 11 12 24.91 -03 37 25.1 20.9 V G96 – Mt. Lemmon Survey MPS 305075
2009 09 18.30494 01 34 55.95 +15 01 48.4 20.7 V 691 – Steward Observatory, Kitt Peak-Spacewatch MPS 297084
2009 09 18.32262 01 34 55.30 +15 01 41.7 20.5 V 691 – Steward Observatory, Kitt Peak-Spacewatch MPS 297084
2009 09 18.34032 01 34 54.64 +15 01 34.4 20.6 V 691 – Steward Observatory, Kitt Peak-Spacewatch MPS 297084
2009 09 22.32073 01 32 24.99 +14 33 01.4 20.7 V 691 – Steward Observatory, Kitt Peak-Spacewatch MPS 297084
2009 09 22.33839 01 32 24.22 +14 32 53.2 20.3 V 691 – Steward Observatory, Kitt Peak-Spacewatch MPS 297084
2009 09 22.35607 01 32 23.46 +14 32 45.2 20.5 V 691 – Steward Observatory, Kitt Peak-Spacewatch MPS 297084
2009 09 26.30310 01 29 30.87 +14 00 38.0 20.5 V 691 – Steward Observatory, Kitt Peak-Spacewatch MPS 297084
2009 09 26.32075 01 29 30.04 +14 00 28.6 20.2 V 691 – Steward Observatory, Kitt Peak-Spacewatch MPS 297084
2009 09 26.33843 01 29 29.14 +14 00 19.9 20.4 V 691 – Steward Observatory, Kitt Peak-Spacewatch MPS 297084
2009 10 27.18486 01 02 43.87 +08 46 39.6 20.2 V G96 – Mt. Lemmon Survey MPS 300807
2009 10 27.19176 01 02 43.54 +08 46 35.9 20.6 V G96 – Mt. Lemmon Survey MPS 300807
2009 10 27.19867 01 02 43.22 +08 46 32.0 20.1 V G96 – Mt. Lemmon Survey MPS 300807
2009 10 27.20545 01 02 42.90 +08 46 27.5 20.5 V G96 – Mt. Lemmon Survey MPS 300807
2011 01 30.35307 09 28 18.44 +03 36 10.1 21.5 V G96 – Mt. Lemmon Survey MPS 368594
2011 01 30.36109 09 28 17.94 +03 36 11.9 21.6 V G96 – Mt. Lemmon Survey MPS 368594
2011 01 30.36903 09 28 17.50 +03 36 14.6 21.5 V G96 – Mt. Lemmon Survey MPS 368594
2011 01 30.37709 09 28 16.96 +03 36 15.8 21.3 V G96 – Mt. Lemmon Survey MPS 368594
2012 07 17.00671 21 04 41.41 -01 11 19.3 19.6   122 – Pises Observatory MPS 428368
2012 07 17.01308 21 04 41.14 -01 11 19.1 19.7   122 – Pises Observatory MPS 428368
2012 07 17.01953 21 04 40.91 -01 11 18.8 19.7   122 – Pises Observatory MPS 428368
2012 08 05.36497 20 50 02.482 -01 53 02.75 19.3 i F51 – Pan-STARRS 1, Haleakala MPS 429049
2012 08 05.37593 20 50 01.906 -01 53 06.05 19.2 i F51 – Pan-STARRS 1, Haleakala MPS 429049
2013 12 31.53750 07 43 28.043 +10 28 13.86 21.5 w F51 – Pan-STARRS 1, Haleakala MPS 495172
2013 12 31.56794 07 43 26.115 +10 28 15.14 21.4 w F51 – Pan-STARRS 1, Haleakala MPS 495172
2013 12 31.58255 07 43 25.192 +10 28 15.79 21.7 w F51 – Pan-STARRS 1, Haleakala MPS 495172
2015 03 21.57060 16 06 20.571 -20 01 19.84 21.8 w F51 – Pan-STARRS 1, Haleakala MPS 595014
2015 03 21.58166 16 06 21.016 -20 01 18.64 21.4 w F51 – Pan-STARRS 1, Haleakala MPS 595014
2015 03 21.60291 16 06 21.871 -20 01 16.31 21.7 w F51 – Pan-STARRS 1, Haleakala MPS 595014
2015 05 12.66073 16 00 27.88 -15 09 27.6 21.1 R D29 – Purple Mountain Observatory, XuYi Station MPS 607180
2015 05 12.67572 16 00 27.04 -15 09 21.0 20.2 R D29 – Purple Mountain Observatory, XuYi Station MPS 607180
2015 05 21.31343 15 52 21.75 -13 55 43.5 20.0 V W84 – Cerro Tololo-DECam MPS 789768
2015 05 21.31669 15 52 21.55 -13 55 41.9   W84 – Cerro Tololo-DECam MPS 789768
2015 05 21.31993 15 52 21.35 -13 55 40.2   W84 – Cerro Tololo-DECam MPS 789768
2015 05 21.32318 15 52 21.16 -13 55 38.5   W84 – Cerro Tololo-DECam MPS 789768
2015 05 21.32641 15 52 20.96 -13 55 36.8   W84 – Cerro Tololo-DECam MPS 789768
2015 05 22.35619 15 51 20.96 -13 46 58.7 20.1 V W84 – Cerro Tololo-DECam MPS 789768
2015 05 22.35945 15 51 20.76 -13 46 57.1   W84 – Cerro Tololo-DECam MPS 789768
2015 05 22.36269 15 51 20.57 -13 46 55.4   W84 – Cerro Tololo-DECam MPS 789768
2015 05 22.36597 15 51 20.38 -13 46 53.7   W84 – Cerro Tololo-DECam MPS 789768
2015 05 25.28068 15 48 31.28 -13 23 00.8 20.1 V G96 – Mt. Lemmon Survey MPS 609719
2015 05 25.28580 15 48 30.93 -13 22 58.7 19.5 V G96 – Mt. Lemmon Survey MPS 609719
2015 05 25.29091 15 48 30.66 -13 22 55.8 19.8 V G96 – Mt. Lemmon Survey MPS 609719
2015 05 25.29603 15 48 30.35 -13 22 53.5 20.1 V G96 – Mt. Lemmon Survey MPS 609719
2015 06 13.25825 15 32 36.29 -11 13 58.1 20.2 V G96 – Mt. Lemmon Survey MPS 611411
2015 06 13.26135 15 32 36.19 -11 13 57.1 20.2 V G96 – Mt. Lemmon Survey MPS 611411
2015 06 13.26443 15 32 36.07 -11 13 56.4 20.4 V G96 – Mt. Lemmon Survey MPS 611411
2015 06 13.26753 15 32 35.93 -11 13 55.2 20.4 V G96 – Mt. Lemmon Survey MPS 611411
2015 06 23.36859 15 27 50.672 -10 34 45.25 20.2 r F51 – Pan-STARRS 1, Haleakala MPS 614039
2015 06 23.38111 15 27 50.401 -10 34 43.25 20.2 r F51 – Pan-STARRS 1, Haleakala MPS 614039
2015 06 23.39344 15 27 50.130 -10 34 41.09 20.3 r F51 – Pan-STARRS 1, Haleakala MPS 614039
2015 06 23.41908 15 27 49.595 -10 34 36.83 20.5 w F52 – Pan-STARRS 2, Haleakala MPS 614039
2015 06 23.43177 15 27 49.347 -10 34 35.07 20.5 w F52 – Pan-STARRS 2, Haleakala MPS 614039
2015 06 23.44443 15 27 49.080 -10 34 32.79 20.5 w F52 – Pan-STARRS 2, Haleakala MPS 614039
2015 06 23.45709 15 27 48.829 -10 34 30.64 20.5 w F52 – Pan-STARRS 2, Haleakala MPS 614039
2015 06 24.32272 15 27 34.634 -10 32 18.05 20.3 r F51 – Pan-STARRS 1, Haleakala MPS 614039
2015 06 24.33504 15 27 34.410 -10 32 16.24 20.4 r F51 – Pan-STARRS 1, Haleakala MPS 614039
2015 06 24.36019 15 27 33.913 -10 32 12.48 20.3 r F51 – Pan-STARRS 1, Haleakala MPS 614039
2016 11 04.46866 06 07 24.041 +16 55 12.52 21.9 w F51 – Pan-STARRS 1, Haleakala MPS 744827
2016 11 04.49460 06 07 23.521 +16 55 06.42 21.9 w F51 – Pan-STARRS 1, Haleakala MPS 744827
2016 11 04.51836 06 07 23.040 +16 55 00.60 22.1 w F51 – Pan-STARRS 1, Haleakala MPS 744827
2018 03 21.34134 12 46 36.07 -10 33 25.3 21.3 G G96 – Mt. Lemmon Survey MPS 890856
2018 03 21.34832 12 46 35.68 -10 33 22.6 21.6 G G96 – Mt. Lemmon Survey MPS 890856
2018 03 21.35516 12 46 35.35 -10 33 19.2 21.8 G G96 – Mt. Lemmon Survey MPS 890856
2018 03 21.36030 12 46 35.04 -10 33 17.4 20.4 G G96 – Mt. Lemmon Survey MPS 890856
2018 04 15.28702 12 23 34.07 -06 43 40.6 21.1 G G96 – Mt. Lemmon Survey MPS 884111
2018 04 15.29218 12 23 33.81 -06 43 37.1 20.7 G G96 – Mt. Lemmon Survey MPS 884111
2018 04 15.29733 12 23 33.47 -06 43 35.5 20.2 G G96 – Mt. Lemmon Survey MPS 884111
2018 04 15.30248 12 23 33.23 -06 43 31.6 20.6 G G96 – Mt. Lemmon Survey MPS 884111
2018 04 23.22183 12 17 25.39 -05 29 28.4 21.3 G G96 – Mt. Lemmon Survey MPS 888436
2018 04 23.22702 12 17 25.14 -05 29 25.9 21.1 G G96 – Mt. Lemmon Survey MPS 888436
2018 04 23.23220 12 17 24.93 -05 29 22.3 21.4 G G96 – Mt. Lemmon Survey MPS 888436
2018 04 23.23740 12 17 24.72 -05 29 19.2 21.6 G G96 – Mt. Lemmon Survey MPS 888436
2019 10 08.43126 03 35 36.934 +18 22 03.16 20.9 i F51 – Pan-STARRS 1, Haleakala MPS 1064035
2019 10 08.44160 03 35 36.649 +18 21 59.72 20.9 i F51 – Pan-STARRS 1, Haleakala MPS 1064035
2019 10 08.46229 03 35 36.071 +18 21 53.47 21.0 i F51 – Pan-STARRS 1, Haleakala MPS 1064035
